[[{"header":{"parameterUnit":"m.s-1","parameterCategory":1,"la1":30.2991,"la2":30.254,"lo1":-89.0895,"lo2":-89.0444,"dy":0.0017,"dx":0.0017,"nx":28,"ny":28,"refTime":"2025-03-28T03:00:00:Z","depth":0,"parameterNumber":2,"parameterNumberName":"U-component_of_WINDS"},"data":[0,0,0,0,0,0,0,0,0,0,0,0,0,0,0,0,0,0,0,0,0,0,0,0,0,0,0,0,0,0,0,0,0,0,0,0,0,0,0,0,0,0,0,0,0,0,0,0,0,0,0,0,0,0,0,0,0,0,-7.6384,-7.6385,0,-7.6542,-7.6544,-7.6545,-7.652,-7.6517,-7.6514,-7.6512,-7.6671,-7.6678,-7.6685,0,0,0,0,0,0,0,0,0,0,0,0,0,-7.6058,-7.6064,-7.6383,-7.6385,-7.6387,-7.6542,-7.6544,-7.6546,-7.652,-7.6517,-7.6513,-7.651,-7.6669,-7.6677,-7.6685,0,0,0,0,0,0,0,0,0,0,0,0,0,-7.6206,-7.6066,-7.6383,-7.6393,-7.6396,-7.6541,-7.6544,-7.6546,-7.6521,-7.6517,-7.6513,-7.6509,-7.6666,-7.6676,-7.6686,-7.6831,0,0,-7.6717,-7.6722,0,0,0,0,0,0,0,0,-7.6198,-7.6218,-7.639,-7.6393,-7.6396,-7.6507,-7.6488,-7.6642,-7.6522,-7.6473,-7.6511,-7.6507,-7.662,-7.6633,-7.6672,-7.6838,-7.6845,-7.6718,-7.6724,-7.6729,-7.6732,0,0,0,0,0,0,0,-7.6188,-7.6211,-7.6446,-7.6392,-7.6396,-7.639,-7.6406,-7.6517,-7.6567,-7.6477,-7.6476,-7.6495,-7.662,-7.6662,-7.6676,-7.6848,-7.6718,-7.6727,-7.6733,-7.6737,-7.7142,-7.7146,0,0,0,0,0,0,-7.6175,-7.6203,-7.6441,-7.6451,-7.6285,-7.6399,-7.6417,-7.6475,-7.6566,-7.6576,-7.6498,-7.6493,-7.6647,-7.6664,-7.6681,-7.6856,-7.6729,-7.6738,-7.6744,-7.7137,-7.7143,-7.7148,0,0,0,0,0,0,-7.6168,-7.6196,-7.6435,-7.6327,-7.6356,-7.6409,-7.6474,-7.6481,-7.6522,-7.6582,-7.6591,-7.6531,-7.6644,-7.6667,-7.6794,-7.6861,-7.6743,-7.6752,-7.7132,-7.7139,-7.7146,-7.7207,0,0,0,0,0,0,-7.6158,-7.6194,-7.6249,-7.6328,-7.6362,-7.6545,-7.6478,-7.6487,-7.654,-7.6535,-7.6616,-7.6625,-7.6643,-7.6779,-7.6804,-7.6873,-7.676,-7.7126,-7.7135,-7.7143,-7.7199,-7.7215,-7.7229,0,0,0,0,0,-7.6147,-7.6259,-7.6252,-7.6281,-7.6433,-7.6549,-7.6569,-7.6587,-7.6546,-7.6601,-7.6641,-7.6622,-7.6851,-7.6793,-7.6821,-7.6893,-7.7122,-7.7133,-7.7143,-7.7192,-7.7212,-7.7229,0,0,0,0,0,0,-7.6185,-7.627,-7.6262,-7.6404,-7.647,-7.6544,-7.6615,-7.6608,-7.6686,-7.6677,-7.6697,-7.6716,-7.6845,-7.6883,-7.6816,-7.7039,-7.698,-7.6997,-7.7009,-7.7028,-7.7042,-7.7029,-7.6769,0,0,0,0,0,-7.621,-7.6298,-7.6367,-7.6485,-7.6519,-7.6562,-7.6613,-7.6623,-7.6691,-7.6719,-7.6767,-7.6834,-7.692,-7.6977,-7.706,-7.7206,-7.7223,-7.727,-7.7285,-7.7297,-7.731,-7.739,-7.7412,-7.7182,-7.7182,-7.7182,0,0,-7.6262,-7.6319,-7.6373,-7.6495,-7.6547,-7.6637,-7.6585,-7.6683,-7.6749,-7.6733,-7.6856,-7.6895,-7.6971,-7.7108,-7.7171,-7.7143,-7.7378,-7.7311,-7.732,-7.7326,-7.7403,-7.7425,-7.7444,-7.7189,-7.7188,-7.7187,0,0,-7.6402,-7.6455,-7.6559,-7.6613,-7.6694,-7.6722,-7.6748,-7.6825,-7.685,-7.6975,-7.6964,-7.7045,-7.7194,-7.7249,-7.7296,-7.7462,-7.7448,-7.7489,-7.7565,-7.7643,-7.7661,-7.7677,-7.7734,-7.7755,-7.7502,-7.7503,-7.7503,0,-7.6456,-7.6592,-7.6613,-7.6713,-7.6766,-7.6758,-7.6864,-7.6915,-7.7018,-7.7055,-7.7024,-7.7212,-7.7263,-7.7413,-7.7454,-7.7493,-7.7522,-7.7477,-7.7657,-7.7673,-7.7688,-7.7743,-7.7765,-7.7507,-7.7506,-7.7506,-7.7505,0,-7.6653,-7.6748,-7.6823,-7.6924,-7.6987,-7.7088,-7.7125,-7.7187,-7.7192,-7.7224,-7.7351,-7.7413,-7.7509,-7.7546,-7.7552,-7.7698,-7.7678,-7.7652,-7.7593,-7.7714,-7.7766,-7.7787,-7.7513,-7.7511,-7.751,-7.7509,0,0,-7.6816,-7.6932,-7.6958,-7.7004,-7.7095,-7.7168,-7.7271,-7.7366,-7.7417,-7.749,-7.7576,-7.7705,-7.7681,-7.7735,-7.7748,-7.7817,-7.7943,-7.7782,-7.7784,-7.7808,-7.8106,-7.8123,-7.8147,-7.7936,-7.7941,-7.7944,-7.8099,0,-7.6963,-7.7144,-7.7168,-7.7328,-7.7416,-7.7412,-7.7501,-7.7566,-7.76,-7.768,-7.7717,-7.7807,-7.7771,-7.7803,-7.7872,-7.7913,-7.8002,-7.7903,-7.8014,-7.8018,-7.7991,-7.8174,-7.8192,-7.8335,-7.812,-7.8123,-7.8126,0,-7.7157,-7.7236,-7.7405,-7.7485,-7.7523,-7.7603,-7.7692,-7.7769,-7.7844,-7.7864,-7.7926,-7.7931,-7.8037,-7.7978,-7.8124,-7.8055,-7.8104,-7.8131,-7.8137,-7.8145,-7.8076,-7.8184,-7.8382,-7.8402,-7.8158,-7.8156,-7.8153,0,-7.7256,-7.7406,-7.7526,-7.7567,-7.7663,-7.7719,-7.7762,-7.7833,-7.7889,-7.7969,-7.8005,-7.8096,-7.8145,-7.8215,-7.8244,-7.8198,-7.8389,-7.8332,-7.8407,-7.8406,-7.8443,-7.8439,-7.8647,-7.848,-7.848,-7.848,-7.8479,0,-7.7415,-7.7518,-7.7572,-7.7646,-7.7762,-7.779,-7.7904,-7.7945,-7.8009,-7.809,-7.8094,-7.817,-7.8206,-7.8288,-7.8313,-7.8429,-7.8452,-7.8471,-7.8475,-7.8468,-7.8465,-7.8497,-7.8486,-7.8485,-7.8484,-7.8483,-7.8482,0,-7.7543,-7.7584,-7.7715,-7.7797,-7.782,-7.7902,-7.7972,-7.8043,-7.8079,-7.8182,-7.8208,-7.8263,-7.836,-7.8398,-7.8517,-7.8533,-7.8667,-7.8665,-7.8642,-7.8642,-7.8714,-7.8706,-7.8946,-7.8979,-7.8793,-7.8795,-7.8796,0,-7.7639,-7.7718,-7.781,-7.7866,-7.7911,-7.8,-7.8058,-7.8091,-7.8151,-7.8244,-7.8304,-7.8402,-7.8481,-7.8637,-7.8687,-7.8778,-7.8777,-7.8855,-7.879,-7.8781,-7.8775,-7.8768,-7.8776,-7.8865,-7.8867,-7.8869,-7.887,0,-7.7806,-7.7823,-7.7907,-7.7999,-7.8069,-7.8142,-7.8214,-7.826,-7.8303,-7.8371,-7.8471,-7.8533,-7.8656,-7.8752,-7.8847,-7.8891,-7.8887,-7.8891,-7.8913,-7.8904,-7.8886,-7.8895,-7.8671,-7.8884,-7.8883,-7.8882,-7.8881,-7.888,-7.7919,-7.7989,-7.8065,-7.8159,-7.8217,-7.8285,-7.8357,-7.8402,-7.8487,-7.8589,-7.8604,-7.8711,-7.8786,-7.8913,-7.8962,-7.9046,-7.9025,-7.9057,-7.9064,-7.9071,-7.9075,-7.8877,-7.9064,-7.9063,-7.9063,-7.9063,-7.9063,0,-7.8083,-7.8133,-7.8219,-7.832,-7.8395,-7.8389,-7.8469,-7.8531,-7.8625,-7.8696,-7.8775,-7.8891,-7.8985,-7.9045,-7.914,-7.9196,-7.9197,-7.922,-7.9214,-7.9224,-7.9089,-7.9059,-7.9217,-7.9217,-7.9217,-7.9217,-7.9217,-7.9217,-7.8177,-7.8295,-7.8323,-7.8471,-7.852,-7.8625,-7.8672,-7.8734,-7.8791,-7.892,-7.8999,-7.9038,-7.9105,-7.9206,-7.9292,-7.9308,-7.9341,-7.9365,-7.9378,-7.925,-7.9233,-7.9218,-7.919,-7.9373,-7.9373,-7.9506,-7.9507,-7.9508]},{"header":{"parameterUnit":"m.s-1","parameterCategory":1,"la1":30.2991,"la2":30.254,"lo1":-89.0895,"lo2":-89.0444,"dy":0.0017,"dx":0.0017,"nx":28,"ny":28,"refTime":"2025-03-28T03:00:00:Z","depth":0,"parameterNumber":3,"parameterNumberName":"V-component_of_WINDS"},"data":[0,0,0,0,0,0,0,0,0,0,0,0,0,0,0,0,0,0,0,0,0,0,0,0,0,0,0,0,0,0,0,0,0,0,0,0,0,0,0,0,0,0,0,0,0,0,0,0,0,0,0,0,0,0,0,0,0,0,3.8614,3.8614,0,3.8639,3.8639,3.864,3.8621,3.862,3.8619,3.8619,3.8643,3.8644,3.8645,0,0,0,0,0,0,0,0,0,0,0,0,0,3.855,3.8551,3.8614,3.8614,3.8614,3.8639,3.8639,3.864,3.8621,3.862,3.8619,3.8618,3.8642,3.8644,3.8645,0,0,0,0,0,0,0,0,0,0,0,0,0,3.8576,3.8551,3.8614,3.8608,3.8608,3.8639,3.8639,3.864,3.8621,3.862,3.8619,3.8618,3.8642,3.8644,3.8646,3.8683,0,0,3.8652,3.8653,0,0,0,0,0,0,0,0,3.8575,3.8579,3.8609,3.8609,3.8608,3.8626,3.8626,3.8654,3.8622,3.8616,3.8619,3.8617,3.8638,3.864,3.8647,3.8684,3.8685,3.8652,3.8654,3.8654,3.8655,0,0,0,0,0,0,0,3.8573,3.8578,3.8624,3.8609,3.8609,3.8604,3.8607,3.8631,3.8633,3.8617,3.8615,3.8619,3.8637,3.8645,3.8648,3.8685,3.8652,3.8654,3.8655,3.8656,3.8757,3.8758,0,0,0,0,0,0,3.8572,3.8576,3.8623,3.8624,3.8588,3.8607,3.8609,3.8621,3.8633,3.8634,3.862,3.8618,3.8643,3.8645,3.8649,3.8695,3.8654,3.8656,3.8658,3.8756,3.8757,3.8759,0,0,0,0,0,0,3.8571,3.8576,3.8622,3.86,3.8605,3.8609,3.8623,3.8622,3.863,3.8635,3.8636,3.8627,3.8642,3.8646,3.8675,3.8696,3.8657,3.8659,3.8754,3.8756,3.8758,3.8787,0,0,0,0,0,0,3.8569,3.8576,3.859,3.86,3.8607,3.8648,3.8624,3.8624,3.8634,3.8632,3.8643,3.8643,3.8641,3.8672,3.8678,3.8698,3.8661,3.8752,3.8755,3.8757,3.8784,3.879,3.8795,0,0,0,0,0,3.8567,3.8596,3.859,3.8596,3.8624,3.8649,3.8653,3.865,3.8636,3.865,3.8654,3.8643,3.8693,3.8676,3.8681,3.8702,3.8751,3.8754,3.8757,3.8782,3.8789,3.8795,0,0,0,0,0,0,3.8586,3.8597,3.8591,3.8625,3.8637,3.8646,3.8664,3.8657,3.8672,3.8669,3.8664,3.8667,3.8699,3.8703,3.8684,3.8741,3.872,3.8724,3.8736,3.8743,3.8748,3.8746,3.8663,0,0,0,0,0,3.8594,3.8614,3.8622,3.8651,3.8657,3.866,3.8671,3.8668,3.8679,3.8684,3.8689,3.8701,3.8719,3.8731,3.8748,3.8785,3.8788,3.8803,3.8808,3.8812,3.8816,3.8838,3.8845,3.8769,3.8769,3.8769,0,0,3.8611,3.862,3.8632,3.8655,3.8664,3.8685,3.8664,3.8686,3.8702,3.8687,3.8716,3.8721,3.8733,3.8768,3.8783,3.8772,3.8838,3.8816,3.8819,3.8821,3.8842,3.8849,3.8856,3.8772,3.8771,3.8771,0,0,3.8653,3.8661,3.8687,3.8697,3.8711,3.8713,3.872,3.8731,3.8734,3.8764,3.8754,3.8772,3.8803,3.8813,3.8823,3.8872,3.8863,3.8878,3.8905,3.8926,3.8932,3.8938,3.8957,3.8964,3.8882,3.8882,3.8882,0,3.8672,3.8703,3.8701,3.8725,3.8737,3.8726,3.8753,3.8762,3.8781,3.8789,3.8778,3.8819,3.8826,3.8863,3.8876,3.8883,3.8891,3.8876,3.8932,3.8937,3.8942,3.896,3.8967,3.8883,3.8883,3.8883,3.8883,0,3.8727,3.8749,3.8769,3.8789,3.8803,3.8828,3.883,3.8844,3.8841,3.8845,3.8876,3.8885,3.8905,3.8913,3.8909,3.8951,3.8945,3.8932,3.8911,3.8951,3.8968,3.8975,3.8886,3.8885,3.8885,3.8884,0,0,3.878,3.8801,3.8809,3.8819,3.8835,3.8852,3.8878,3.8899,3.8912,3.8925,3.8948,3.8976,3.8966,3.8976,3.8974,3.8993,3.9034,3.8979,3.8979,3.899,3.9082,3.9092,3.91,3.9028,3.9029,3.903,3.9082,0,3.8824,3.887,3.887,3.8912,3.8934,3.8926,3.8948,3.8961,3.8966,3.8985,3.8989,3.901,3.8994,3.9001,3.9019,3.9025,3.9052,3.9021,3.9049,3.905,3.9047,3.9109,3.9119,3.9167,3.9088,3.909,3.909,0,3.8881,3.8899,3.8944,3.896,3.8969,3.899,3.901,3.9028,3.9043,3.9045,3.9059,3.9054,3.9081,3.906,3.9098,3.9076,3.9088,3.9093,3.9095,3.9097,3.9073,3.9115,3.9182,3.9189,3.9101,3.91,3.9099,0,3.8918,3.8953,3.8985,3.8994,3.9013,3.9028,3.9036,3.905,3.9063,3.9081,3.909,3.911,3.9122,3.9138,3.9139,3.9123,3.9178,3.9156,3.9181,3.9181,3.9193,3.9193,3.9264,3.9199,3.9199,3.9199,3.9199,0,3.8967,3.8996,3.9002,3.9022,3.9054,3.9055,3.9086,3.9093,3.9106,3.9128,3.9121,3.9141,3.9142,3.9162,3.9164,3.9196,3.9201,3.9204,3.9204,3.9205,3.9205,3.9213,3.921,3.9201,3.9201,3.92,3.92,0,3.9013,3.9019,3.9054,3.907,3.9074,3.9098,3.9111,3.9131,3.9135,3.9163,3.9169,3.9177,3.9201,3.9205,3.9232,3.9233,3.9273,3.9269,3.9268,3.9268,3.9294,3.9292,3.9374,3.9386,3.9312,3.9313,3.9313,0,3.9045,3.9067,3.9086,3.9101,3.9111,3.9134,3.9149,3.915,3.9166,3.9186,3.9203,3.9228,3.9247,3.9287,3.9295,3.9317,3.9314,3.9341,3.9317,3.9318,3.9316,3.9315,3.9318,3.9346,3.9347,3.9347,3.9348,0,3.9102,3.9104,3.9125,3.9149,3.9167,3.9185,3.9202,3.9214,3.9218,3.9236,3.9262,3.9277,3.9307,3.9332,3.9354,3.9363,3.9357,3.9356,3.9363,3.9365,3.9364,3.9366,3.9282,3.9354,3.9353,3.9353,3.9352,3.9352,3.9143,3.9163,3.9181,3.9205,3.9219,3.9236,3.9256,3.9264,3.9286,3.9311,3.9311,3.934,3.9356,3.9386,3.9397,3.9419,3.941,3.942,3.9423,3.9426,3.943,3.936,3.9423,3.9423,3.9423,3.9423,3.9423,0,3.92,3.9212,3.9235,3.926,3.928,3.9274,3.9293,3.931,3.9336,3.9352,3.9373,3.9404,3.9428,3.9439,3.9463,3.9479,3.9477,3.9486,3.9485,3.9488,3.9435,3.9427,3.9487,3.9487,3.9487,3.9487,3.9487,3.9487,3.9233,3.9268,3.9273,3.9314,3.9326,3.9355,3.9367,3.9383,3.9396,3.9431,3.9452,3.946,3.9474,3.95,3.9522,3.9525,3.9535,3.9545,3.9546,3.9497,3.9491,3.9485,3.9477,3.9547,3.9547,3.9597,3.9597,3.9598]}]]